This demonstration page uses our WeatherBlox Daily Observations layout. Learn more.

Left ArrowRight Arrow

Hourly Observations for January 6, 2017

Temp ( °F °C ) Dew Point ( °F °C ) Humidity (%) Winds ( mph kmh ) Pressure ( in mb ) Visibility ( mi km ) Precip ( " mm )
12:53 am 00:53 Clear -10 -23.3 -15 -26.1 78 78 W 6 9 30.35 1028 10 16 0.00 0.00
1:53 am 01:53 Clear -9 -22.8 -14 -25.6 78 78 W 7 11 30.34 1028 10 16 0.00 0.00
2:53 am 02:53 Clear -9 -22.8 -14 -25.6 78 78 SW 5 7 30.34 1027 10 16 0.00 0.00
3:53 am 03:53 Clear -11 -23.9 -17 -27.2 74 74 SW 6 9 30.37 1028 10 16 0.00 0.00
4:53 am 04:53 Clear -10 -23.3 -15 -26.1 78 78 WSW 5 7 30.37 1028 10 16 0.00 0.00
5:53 am 05:53 Clear -10 -23.3 -16 -26.7 74 74 WSW 8 13 30.37 1029 10 16 0.00 0.00
6:53 am 06:53 Clear -8 -22.2 -14 -25.6 74 74 W 8 13 30.37 1028 10 16 0.00 0.00
7:53 am 07:53 Clear -9 -22.8 -15 -26.1 75 75 W 7 11 30.40 1029 10 16 0.00 0.00
8:53 am 08:53 Sunny -7 -21.7 -13 -25 75 75 W 6 9 30.40 1030 10 16 0.00 0.00
9:53 am 09:53 Sunny -4 -20 -11 -23.9 71 71 W 6 9 30.42 1030 10 16 0.00 0.00
10:53 am 10:53 Sunny 0 -17.8 -8 -22.2 69 69 W 5 7 30.44 1031 10 16 0.00 0.00
11:53 am 11:53 Sunny 5 -15 -4 -20 66 66 WSW 6 9 30.41 1030 10 16 0.00 0.00
12:53 pm 12:53 Sunny 8 -13.3 -2 -18.9 63 63 WSW 7 11 30.40 1030 10 16 0.00 0.00
1:53 pm 13:53 Sunny 12 -11.1 1 -17.2 61 61 SW 6 9 30.38 1029 10 16 0.00 0.00
2:53 pm 14:53 Sunny 14 -10 2 -16.7 58 58 SW 6 9 30.37 1029 10 16 0.00 0.00
3:53 pm 15:53 Sunny 15 -9.4 2 -16.7 56 56 SW 7 11 30.39 1029 10 16 0.00 0.00
4:53 pm 16:53 Sunny 14 -10 2 -16.7 58 58 SW 5 7 30.40 1029 10 16 0.00 0.00
5:53 pm 17:53 Clear 12 -11.1 1 -17.2 61 61 SW 5 7 30.41 1030 10 16 0.00 0.00
6:53 pm 18:53 Clear 11 -11.7 1 -17.2 64 64 SW 5 7 30.43 1031 10 16 0.00 0.00
7:53 pm 19:53 Clear 10 -12.2 1 -17.2 67 67 SW 7 11 30.45 1031 10 16 0.00 0.00
8:53 pm 20:53 Clear 9 -12.8 -1 -18.3 64 64 SW 6 9 30.46 1031 10 16 0.00 0.00
9:53 pm 21:53 Clear 8 -13.3 -1 -18.3 66 66 SW 7 11 30.45 1031 10 16 0.00 0.00
10:53 pm 22:53 Clear 4 -15.6 -3 -19.4 73 73 WSW 7 11 30.48 1032 10 16 0.00 0.00
11:53 pm 23:53 Clear 5 -15 -3 -19.4 69 69 WSW 8 13 30.48 1032 10 16 0.00 0.00

Powered by AerisWeather